Tracking 29487 objects as of 11-Sep-2024
HD Live streaming from Space Station
objects crossing your sky now

NIMBUS 3


NIMBUS 3 is no longer on orbit


NORAD ID: 3890
Int'l Code: 1969-037A
Perigee: N/A
Apogee: N/A
Inclination: N/A
Period: N/A
Semi major axis: N/A
RCS: N/A
Launch date: April 14, 1969
Source: United States (US)
Launch site: AIR FORCE WESTERN TEST RANGE (AFWTR)
Decay date: 1972-01-22
Your satellite tracking list
Your tracking list is empty




NASA's NSSDC Master Catalog

Two Line Element Set (TLE):
1 03890U 69037A   24255.59752284  .00000035  00000-0  13684-3 0  9998
2 03890  99.7841 147.2850 0040196  95.7378 326.5999 13.42618508714414
Source of the keplerian elements: AFSPC